Regional Weather Roundup
Issued by NWS Northern Indiana

Home | Current Version | Previous Version | Graphics & Text | Print | Product List | Glossary On
Versions: 1 2 3 4 5 6 7 8 9 10 11 12 13 14 15 16 17 18 19 20 21 22 23 24 25 26 27 28 29 30 31 32 33 34 35 36 37 38 39 40 41 42 43 44 45 46 47 48 49 50
738
ASUS43 KIWX 152200
RWRIWX

KIWX WEATHER ROUNDUP
NATIONAL WEATHER SERVICE NORTHERN INDIANA
500 PM EST FRI DEC 15 2017

NOTE: "FAIR" INDICATES FEW OR NO CLOUDS BELOW 12,000 FEET WITH NO
SIGNIFICANT WEATHER AND/OR OBSTRUCTIONS TO VISIBILITY.

* THESE STATIONS ARE NOT UNDER NWS QUALITY CONTROL. THEY ALSO MAY NOT
  REPORT WEATHER SUCH AS PRECIPITATION OR FOG.

INZ001>027-152300-
NORTHERN INDIANA

CITY           SKY/WX    TMP DP  RH WIND       PRES   REMARKS
GARY*          CLOUDY    34  23  64 SW14G25   29.93R WCI  24
MICHIGAN CITY* CLOUDY    32  21  64 SW8       29.92R WCI  25
KNOX*          CLOUDY    32  19  59 W10       29.92S WCI  24
SOUTH BEND     CLOUDY    29  21  72 W12       29.90S WCI  19
ELKHART*       CLOUDY    28  18  64 SW12      29.88F WCI  18
GOSHEN         CLOUDY    28  16  60 W10       29.89F WCI  19
MONTICELLO*    CLOUDY    32  16  50 W13G18    29.96S WCI  23
WARSAW*        CLOUDY    28  18  64 W8G16     29.91F WCI  20
FORT WAYNE     MOCLDY    28  19  69 W15       29.94R WCI  16
PERU/GRISSOM   CLOUDY    32  17  54 W10       29.95R WCI  23

$$
INZ028>050-152300-
CENTRAL INDIANA

CITY           SKY/WX    TMP DP  RH WIND       PRES   REMARKS
LAFAYETTE      CLOUDY    32  18  56 W8        29.99R WCI  25
KOKOMO*        CLOUDY    32  18  56 W15       29.97R WCI  22
MUNCIE*        MOCLDY    32  15  49 W14       29.97R WCI  22
INDIANAPOLIS   PTCLDY    30  18  60 W12       30.02R WCI  20

$$
MIZ043>046-050>051-056>058-064>065-071>073-077>080-152300-
SOUTHWEST LOWER MICHIGAN

CITY           SKY/WX    TMP DP  RH WIND       PRES   REMARKS
BATTLE CREEK   MOCLDY    26  15  63 W12       29.84R WCI  16
BENTON HARBOR  CLOUDY    31  21  66 W21       29.89R WCI  18
COLDWATER*     MOCLDY    26  14  62 W15       29.86R WCI  13
HILLSDALE*     CLOUDY    27  16  63 W12G17    29.83R WCI  16
HOLLAND        CLOUDY    28  16  60 W16G28    29.86R WCI  16
GRAND RAPIDS   FLURRIES  26  16  65 W16       29.83R WCI  14
KALAMAZOO      CLOUDY    28  15  58 W10       29.86R WCI  19
STURGIS*       CLOUDY    28  18  64 W9        29.87R WCI  20
THREE RIVERS*  CLOUDY    29  18  63 W7        29.88R WCI  22

$$
OHZ001>008-015>018-024>025-152300-
NORTHWEST OHIO

CITY           SKY/WX    TMP DP  RH WIND       PRES   REMARKS
DEFIANCE       CLOUDY    27  15  61 W9G17     29.92R WCI  18
FINDLAY        CLOUDY    27  19  72 W17       29.91R WCI  14
TOLEDO EXPRESS CLOUDY    27  19  72 W16       29.89R WCI  15
TOLEDO METCALF CLOUDY    27  19  72 SW10      29.90R WCI  17
LIMA           MOCLDY    26  17  68 W14G26    29.93R WCI  14

$$
AND FOR LAKE MICHIGAN COASTAL AND OPEN LAKE BUOY OBSERVATIONS

STATION/POSITION TEMP    WIND        PRES    VSBY  WAVE
                 AIR SEA DIR/SP/G                  HT/PER
                 (F)     (DEG/KT/KT) (MB)    (MI)  (FT/S)
CALUMET HARBOR    31     230/  7/ 12 1012.4R
MICHIGAN CITY     32     240/ 24/ 28   N/A
BURNS HARBOR      33     240/ 15/ 19 1013.5R
SAINT JOSEPH      33     280/ 17/ 23 1012.5

$$
&&




USA.gov is the U.S. government's official web portal to all federal, state and local government web resources and services.